Flag for U.S.A. Weather past 2 weeks in Manhattan, Kansas, U.S.A.

Now
50 °F

Clear.


Feels Like: 49 °F
Forecast: 41 / 62 °F
Wind: 3 mph from Northeast

Location: Manhattan Municipal Airport

Current Time: Apr 26, 2015 at 11:54:09 PM

Latest Report: Apr 26, 2015 at 10:52 PM


Visibility: 10 mi

Pressure: 30.01 "Hg

Humidity: 71%

Dew point: 41 °F

Location of ManhattanLocation

Historic Weather in Manhattan — Graph

°F

Manhattan temperature yesterday

Maximum temperature yesterday: 61 °F (at 12:52 PM)
Minimum temperature yesterday: 50 °F (at 10:52 PM)
Average temperature yesterday: 56 °F

Past Weeks' High & Low Weather Summary

 TemperatureHumidityPressure
High77 °F (Apr 16, 3:52 PM)100% (Apr 18, 7:52 AM)30.27 "Hg (Apr 18, 7:52 AM)
Low34 °F (Apr 21, 5:52 AM)19% (Apr 21, 4:52 PM)29.34 "Hg (Apr 25, 2:52 AM)
Average57 °F66%29.91 "Hg
* Reported Apr 11 9:52 PM — Apr 26 9:52 PM, Manhattan, Weather by CustomWeather, © 2015

Note: Actual official high and low records may vary slightly from our data, if they occured in-between our weather recording intervals... More about our weather records

Advertising

Manhattan weather history for previous 24 hours

 ConditionsComfort  
Time TempWeatherWind HumidityBarometerVisibility
9:52 PM
Sun, Apr 26
50 °FClear.8 mph74%29.99 "Hg10 mi
8:52 PM52 °FSunny.7 mph75%29.97 "Hg10 mi
7:52 PM57 °FPassing clouds.8 mph64%29.96 "Hg10 mi
6:52 PM60 °FSunny.16 mph58%29.91 "Hg10 mi
5:52 PM59 °FPartly sunny.16 mph64%29.91 "Hg10 mi
4:52 PM58 °FPartly sunny.12 mph65%29.93 "Hg10 mi
3:52 PM54 °FOvercast.15 mph72%29.95 "Hg10 mi
2:52 PM54 °FOvercast.17 mph69%29.96 "Hg10 mi
1:52 PM53 °FOvercast.16 mph74%29.96 "Hg10 mi
12:52 PM52 °FOvercast.13 mph77%29.98 "Hg10 mi
11:52 AM52 °FMostly cloudy.13 mph80%29.98 "Hg7 mi
10:52 AM50 °FFog.12 mph86%29.97 "Hg5 mi
9:52 AM49 °FFog.15 mph90%29.95 "Hg3 mi
8:52 AM49 °FFog.16 mph90%29.94 "Hg2 mi
7:52 AM48 °FFog.12 mph96%29.92 "Hg2 mi
6:59 AM49 °FFog.10 mph93%29.90 "Hg4 mi
5:52 AM49 °FFog.14 mph93%29.87 "Hg5 mi
4:52 AM49 °FFog.10 mph93%29.85 "Hg4 mi
3:52 AM49 °FFog.10 mph93%29.84 "Hg4 mi
2:52 AM49 °FOvercast.10 mph93%29.84 "Hg8 mi
1:52 AM49 °FFog.10 mph93%29.84 "Hg3 mi
1:02 AM49 °FFog.10 mph93%29.85 "Hg3 mi
11:52 PM
Sat, Apr 25
50 °FFog.10 mph93%29.84 "Hg5 mi
Weather by CustomWeather, © 2015

See weather overviewHow to use our weather pages